CMP318 MPTO-SMJP

Flight info

Callsign CMP318
Flight time N/A
Altitude 37000
Route ANGU1B ANGUD MUBAR UP650 ISLAG UP549 TIM UG443 GEBON DIDAR SIPIX
Aircraft B737/M-SDE3FGHIRWY/S

Departure

Time N/A
Airport Tocumen International Airport (MPTO)

Arrival

Time 2026-04-24 21:44
Airport Johan Adolf Pengel International Airport (SMJP)
Time Latitude Longitude Altitude Speed Heading
2026-04-24 18:54 9.24239 -75.47212 36913 ft 472 kts 86°
2026-04-24 18:55 9.25299 -75.37338 36913 ft 472 kts 86°
2026-04-24 18:56 9.26008 -75.30729 36919 ft 473 kts 86°
2026-04-24 18:56 9.26715 -75.24112 36913 ft 473 kts 86°
2026-04-24 18:57 9.27423 -75.17486 36913 ft 473 kts 86°
2026-04-24 18:57 9.28130 -75.10859 36913 ft 474 kts 86°
2026-04-24 18:58 9.28836 -75.04225 36912 ft 474 kts 87°
2026-04-24 18:58 9.29541 -74.97593 36907 ft 473 kts 87°
2026-04-24 18:59 9.30244 -74.90964 36911 ft 473 kts 87°
2026-04-24 18:59 9.30940 -74.84388 36907 ft 473 kts 87°
2026-04-24 19:00 9.31639 -74.77771 36908 ft 472 kts 87°
2026-04-24 19:00 9.32336 -74.71160 36910 ft 472 kts 87°
2026-04-24 19:01 9.33032 -74.64549 36909 ft 471 kts 87°
2026-04-24 19:01 9.33726 -74.57951 36905 ft 471 kts 87°
2026-04-24 19:02 9.34301 -74.52466 36911 ft 471 kts 87°
2026-04-24 19:02 9.35109 -74.44750 36908 ft 471 kts 87°
2026-04-24 19:03 9.35800 -74.38144 36906 ft 472 kts 87°
2026-04-24 19:03 9.36489 -74.31539 36905 ft 471 kts 87°
2026-04-24 19:04 9.37061 -74.26051 36903 ft 472 kts 87°
2026-04-24 19:04 9.37860 -74.18369 36909 ft 472 kts 87°
2026-04-24 19:05 9.38546 -74.11760 36908 ft 472 kts 87°
2026-04-24 19:05 9.39120 -74.06218 36908 ft 472 kts 87°
2026-04-24 19:06 9.39804 -73.99601 36901 ft 472 kts 87°
2026-04-24 19:06 9.40483 -73.93032 36908 ft 472 kts 86°
2026-04-24 19:07 9.41163 -73.86429 36910 ft 471 kts 86°
2026-04-24 19:07 9.41842 -73.79830 36903 ft 471 kts 87°
2026-04-24 19:08 9.42519 -73.73236 36909 ft 470 kts 87°
2026-04-24 19:08 9.43195 -73.66643 36912 ft 470 kts 87°
2026-04-24 19:09 9.43868 -73.60059 36921 ft 470 kts 86°
2026-04-24 19:09 9.44540 -73.53479 36910 ft 470 kts 86°
2026-04-24 19:10 9.45209 -73.46915 36936 ft 471 kts 86°
2026-04-24 19:10 9.45881 -73.40308 36936 ft 472 kts 86°
2026-04-24 19:11 9.46554 -73.33676 36942 ft 473 kts 86°
2026-04-24 19:11 9.47226 -73.27049 36927 ft 474 kts 86°
2026-04-24 19:12 9.47677 -73.20396 36936 ft 472 kts 96°
2026-04-24 19:12 9.46451 -73.13969 36937 ft 466 kts 113°
2026-04-24 19:13 9.44420 -73.08871 36930 ft 466 kts 115°
2026-04-24 19:13 9.41505 -73.01827 36922 ft 467 kts 115°
2026-04-24 19:14 9.39032 -72.95746 36921 ft 467 kts 115°
2026-04-24 19:14 9.36588 -72.89659 36900 ft 465 kts 115°
2026-04-24 19:15 9.34159 -72.83591 36883 ft 464 kts 115°
2026-04-24 19:15 9.31737 -72.77545 36874 ft 462 kts 115°
2026-04-24 19:16 9.28129 -72.68554 36876 ft 460 kts 115°
2026-04-24 19:16 9.25723 -72.62561 36871 ft 459 kts 115°
2026-04-24 19:17 9.23317 -72.56575 36873 ft 458 kts 115°
2026-04-24 19:17 9.20912 -72.50592 36871 ft 458 kts 115°
2026-04-24 19:18 9.18510 -72.44621 36868 ft 458 kts 115°
2026-04-24 19:18 9.16121 -72.38685 36870 ft 458 kts 115°
2026-04-24 19:19 9.13716 -72.32711 36867 ft 459 kts 115°
2026-04-24 19:19 9.11304 -72.26726 36870 ft 459 kts 115°
2026-04-24 19:20 9.08889 -72.20734 36868 ft 460 kts 115°
2026-04-24 19:20 9.06484 -72.14770 36874 ft 461 kts 115°
2026-04-24 19:21 9.04058 -72.08758 36877 ft 462 kts 115°
2026-04-24 19:21 9.01628 -72.02738 36875 ft 462 kts 115°
2026-04-24 19:22 8.99192 -71.96706 36886 ft 462 kts 115°
2026-04-24 19:22 8.97244 -71.90514 36887 ft 464 kts 104°
2026-04-24 19:23 8.95958 -71.84161 36876 ft 464 kts 103°
2026-04-24 19:23 8.94676 -71.77772 36883 ft 463 kts 104°
2026-04-24 19:24 8.93354 -71.71402 36881 ft 462 kts 104°
2026-04-24 19:24 8.92023 -71.65087 36902 ft 461 kts 104°
2026-04-24 19:25 8.90683 -71.58742 36921 ft 460 kts 104°
2026-04-24 19:25 8.89347 -71.52410 36950 ft 460 kts 104°
2026-04-24 19:26 8.88017 -71.46104 36966 ft 461 kts 104°
2026-04-24 19:26 8.86674 -71.39746 36973 ft 463 kts 104°
2026-04-24 19:27 8.85324 -71.33359 36950 ft 466 kts 104°
2026-04-24 19:27 8.83971 -71.26946 37019 ft 467 kts 104°
2026-04-24 19:28 8.82614 -71.20512 37003 ft 469 kts 104°
2026-04-24 19:28 8.81252 -71.14062 37052 ft 469 kts 103°
2026-04-24 19:29 8.79209 -71.04399 37053 ft 468 kts 104°
2026-04-24 19:30 8.77846 -70.97959 37095 ft 468 kts 104°
2026-04-24 19:30 8.76481 -70.91518 37078 ft 468 kts 104°
2026-04-24 19:31 8.75127 -70.85135 37077 ft 467 kts 104°
2026-04-24 19:31 8.73767 -70.78722 37086 ft 466 kts 104°
2026-04-24 19:32 8.72407 -70.72321 37030 ft 466 kts 104°
2026-04-24 19:32 8.71046 -70.65922 37032 ft 465 kts 104°
2026-04-24 19:33 8.69684 -70.59521 36988 ft 466 kts 104°
2026-04-24 19:33 8.68322 -70.53126 36993 ft 465 kts 104°
2026-04-24 19:34 8.66959 -70.46728 36951 ft 465 kts 104°
2026-04-24 19:34 8.65596 -70.40342 36945 ft 465 kts 104°
2026-04-24 19:35 8.64241 -70.33991 36950 ft 464 kts 104°
2026-04-24 19:35 8.62877 -70.27607 36922 ft 464 kts 104°
2026-04-24 19:36 8.61507 -70.21220 36916 ft 464 kts 105°
2026-04-24 19:36 8.59921 -70.14898 36912 ft 463 kts 107°
2026-04-24 19:37 8.58227 -70.08611 36902 ft 463 kts 107°
2026-04-24 19:37 8.56553 -70.02323 36895 ft 463 kts 107°
2026-04-24 19:38 8.54903 -69.96030 36897 ft 463 kts 107°
2026-04-24 19:38 8.53274 -69.89783 36891 ft 463 kts 107°
2026-04-24 19:39 8.51633 -69.83490 36882 ft 462 kts 107°
2026-04-24 19:39 8.49993 -69.77211 36888 ft 462 kts 107°
2026-04-24 19:40 8.48351 -69.70932 36883 ft 462 kts 107°
2026-04-24 19:40 8.46708 -69.64653 36890 ft 462 kts 107°
2026-04-24 19:41 8.45073 -69.58408 36887 ft 462 kts 107°
2026-04-24 19:41 8.43425 -69.52121 36889 ft 463 kts 107°
2026-04-24 19:42 8.41774 -69.45825 36871 ft 463 kts 107°
2026-04-24 19:42 8.40124 -69.39533 36881 ft 463 kts 107°
2026-04-24 19:43 8.38480 -69.33272 36876 ft 463 kts 107°
2026-04-24 19:43 8.36826 -69.26978 36878 ft 464 kts 107°
2026-04-24 19:44 8.35170 -69.20678 36876 ft 464 kts 107°
2026-04-24 19:44 8.33512 -69.14377 36881 ft 463 kts 107°
2026-04-24 19:45 8.31867 -69.08125 36870 ft 463 kts 107°
2026-04-24 19:45 8.30213 -69.01846 36875 ft 462 kts 107°
2026-04-24 19:46 8.28560 -68.95575 36872 ft 462 kts 107°
2026-04-24 19:46 8.26908 -68.89305 36871 ft 461 kts 107°
2026-04-24 19:47 8.25259 -68.83049 36869 ft 461 kts 107°
2026-04-24 19:47 8.23621 -68.76833 36866 ft 460 kts 107°
2026-04-24 19:48 8.21973 -68.70589 36872 ft 460 kts 107°
2026-04-24 19:48 8.19503 -68.61233 36866 ft 459 kts 107°
2026-04-24 19:49 8.16219 -68.48810 36865 ft 459 kts 107°
2026-04-24 19:50 8.12920 -68.36348 36860 ft 460 kts 107°
2026-04-24 19:51 8.10437 -68.26978 36856 ft 460 kts 107°
2026-04-24 19:52 8.07960 -68.17639 36857 ft 461 kts 106°
2026-04-24 19:52 8.06299 -68.11382 36863 ft 461 kts 106°
2026-04-24 19:53 8.04915 -68.06171 36858 ft 462 kts 106°
2026-04-24 19:54 8.02417 -67.96770 36859 ft 462 kts 106°
2026-04-24 19:54 8.00746 -67.90497 36857 ft 463 kts 106°
2026-04-24 19:55 7.99357 -67.85288 36859 ft 463 kts 106°
2026-04-24 19:55 7.97410 -67.77994 36856 ft 463 kts 106°
2026-04-24 19:56 7.95736 -67.71720 36855 ft 463 kts 106°
2026-04-24 19:56 7.94060 -67.65444 36854 ft 462 kts 107°
2026-04-24 19:57 7.92384 -67.59172 36857 ft 462 kts 107°
2026-04-24 19:57 7.90710 -67.52912 36860 ft 462 kts 107°
2026-04-24 19:58 7.89048 -67.46697 36858 ft 462 kts 107°
2026-04-24 19:58 7.87579 -67.40388 36859 ft 463 kts 102°
2026-04-24 19:59 7.86494 -67.33940 36855 ft 463 kts 101°
2026-04-24 19:59 7.85389 -67.27578 36852 ft 463 kts 102°
2026-04-24 20:00 7.84247 -67.21181 36848 ft 463 kts 101°
2026-04-24 20:00 7.83124 -67.14782 36857 ft 463 kts 101°
2026-04-24 20:01 7.82011 -67.08427 36854 ft 462 kts 101°
2026-04-24 20:01 7.80889 -67.02040 36846 ft 462 kts 101°
2026-04-24 20:02 7.79957 -66.96744 36850 ft 461 kts 101°
2026-04-24 20:02 7.78644 -66.89292 36853 ft 461 kts 102°
2026-04-24 20:03 7.77522 -66.82931 36851 ft 461 kts 102°
2026-04-24 20:03 7.76400 -66.76575 36852 ft 460 kts 102°
2026-04-24 20:04 7.75279 -66.70226 36853 ft 459 kts 102°
2026-04-24 20:04 7.74164 -66.63922 36852 ft 459 kts 102°
2026-04-24 20:05 7.73042 -66.57586 36851 ft 459 kts 102°
2026-04-24 20:05 7.71921 -66.51252 36851 ft 459 kts 102°
2026-04-24 20:06 7.70797 -66.44916 36851 ft 459 kts 102°
2026-04-24 20:06 7.69653 -66.38584 36853 ft 459 kts 102°
2026-04-24 20:07 7.68686 -66.33316 36853 ft 459 kts 102°
2026-04-24 20:07 7.67344 -66.25906 36852 ft 460 kts 102°
2026-04-24 20:08 7.66219 -66.19593 36851 ft 460 kts 102°
2026-04-24 20:08 7.65085 -66.13238 36851 ft 460 kts 102°
2026-04-24 20:09 7.63947 -66.06876 36855 ft 460 kts 102°
2026-04-24 20:09 7.62815 -66.00559 36851 ft 460 kts 102°
2026-04-24 20:10 7.61675 -65.94204 36855 ft 460 kts 102°
2026-04-24 20:10 7.60536 -65.87859 36857 ft 459 kts 102°
2026-04-24 20:11 7.59398 -65.81525 36856 ft 459 kts 102°
2026-04-24 20:11 7.58259 -65.75196 36854 ft 459 kts 102°
2026-04-24 20:12 7.57121 -65.68874 36854 ft 458 kts 102°
2026-04-24 20:12 7.55990 -65.62593 36855 ft 458 kts 102°
2026-04-24 20:13 7.54850 -65.56274 36857 ft 458 kts 102°
2026-04-24 20:13 7.53711 -65.49960 36854 ft 458 kts 102°
2026-04-24 20:14 7.52570 -65.43643 36852 ft 458 kts 102°
2026-04-24 20:14 7.51430 -65.37338 36857 ft 457 kts 102°
2026-04-24 20:15 7.50288 -65.31027 36852 ft 457 kts 102°
2026-04-24 20:15 7.49146 -65.24721 36856 ft 457 kts 103°
2026-04-24 20:16 7.48010 -65.18451 36854 ft 457 kts 103°
2026-04-24 20:16 7.46865 -65.12140 36855 ft 458 kts 103°
2026-04-24 20:17 7.45720 -65.05829 36850 ft 458 kts 103°
2026-04-24 20:17 7.44001 -64.96371 36849 ft 458 kts 103°
2026-04-24 20:18 7.42854 -64.90065 36856 ft 457 kts 103°
2026-04-24 20:18 7.41713 -64.83798 36852 ft 456 kts 103°
2026-04-24 20:19 7.40566 -64.77503 36850 ft 456 kts 103°
2026-04-24 20:19 7.39422 -64.71227 36855 ft 455 kts 103°
2026-04-24 20:20 7.38283 -64.64987 36851 ft 455 kts 103°
2026-04-24 20:20 7.37137 -64.58708 36853 ft 455 kts 103°
2026-04-24 20:21 7.35998 -64.52441 36855 ft 455 kts 103°
2026-04-24 20:21 7.34861 -64.46171 36853 ft 455 kts 103°
2026-04-24 20:22 7.33722 -64.39904 36855 ft 455 kts 103°
2026-04-24 20:22 7.32581 -64.33629 36857 ft 455 kts 102°
2026-04-24 20:23 7.31449 -64.27407 36856 ft 455 kts 102°
2026-04-24 20:23 7.30307 -64.21136 36851 ft 455 kts 102°
2026-04-24 20:24 7.29158 -64.14855 36853 ft 455 kts 102°
2026-04-24 20:24 7.28002 -64.08579 36850 ft 455 kts 102°
2026-04-24 20:25 7.26846 -64.02307 36858 ft 455 kts 102°
2026-04-24 20:25 7.25696 -63.96063 36854 ft 456 kts 102°
2026-04-24 20:26 7.24538 -63.89785 36854 ft 455 kts 102°
2026-04-24 20:26 7.23381 -63.83508 36849 ft 455 kts 102°
2026-04-24 20:27 7.22218 -63.77214 37173 ft 456 kts 102°
2026-04-24 20:27 7.21640 -63.74084 37502 ft 454 kts 102°
2026-04-24 20:27 7.21063 -63.70960 37832 ft 451 kts 102°
2026-04-24 20:28 7.20491 -63.67864 38090 ft 450 kts 102°
2026-04-24 20:28 7.19925 -63.64804 38222 ft 451 kts 102°
2026-04-24 20:28 7.19348 -63.61691 38364 ft 452 kts 102°
2026-04-24 20:28 7.18771 -63.58574 38573 ft 452 kts 102°
2026-04-24 20:29 7.18383 -63.56476 38707 ft 451 kts 102°
2026-04-24 20:29 7.17620 -63.52360 38842 ft 453 kts 102°
2026-04-24 20:29 7.16461 -63.46105 38846 ft 453 kts 102°
2026-04-24 20:30 7.15308 -63.39889 38841 ft 450 kts 102°
2026-04-24 20:30 7.14157 -63.33687 38856 ft 449 kts 102°
2026-04-24 20:31 7.13009 -63.27508 38850 ft 449 kts 102°
2026-04-24 20:31 7.11860 -63.21325 38855 ft 449 kts 102°
2026-04-24 20:32 7.10713 -63.15164 38855 ft 451 kts 102°
2026-04-24 20:32 7.09555 -63.08952 38864 ft 452 kts 102°
2026-04-24 20:33 7.08392 -63.02723 38855 ft 453 kts 102°
2026-04-24 20:33 7.07227 -62.96483 38855 ft 454 kts 102°
2026-04-24 20:34 7.06060 -62.90240 38855 ft 454 kts 102°
2026-04-24 20:34 7.04892 -62.83992 38856 ft 454 kts 102°
2026-04-24 20:35 7.03724 -62.77746 38857 ft 454 kts 102°
2026-04-24 20:35 7.02562 -62.71543 38860 ft 453 kts 102°
2026-04-24 20:36 7.01394 -62.65308 38858 ft 453 kts 102°
2026-04-24 20:36 7.00224 -62.59068 38861 ft 452 kts 102°
2026-04-24 20:37 6.99055 -62.52841 38859 ft 452 kts 102°
2026-04-24 20:37 6.97887 -62.46624 38865 ft 451 kts 102°
2026-04-24 20:38 6.96730 -62.40465 38858 ft 450 kts 102°
2026-04-24 20:38 6.95564 -62.34268 38859 ft 449 kts 102°
2026-04-24 20:39 6.94402 -62.28090 38858 ft 449 kts 102°
2026-04-24 20:39 6.93241 -62.21926 38852 ft 448 kts 102°
2026-04-24 20:40 6.92278 -62.16813 38860 ft 447 kts 102°
2026-04-24 20:40 6.91120 -62.10656 38853 ft 446 kts 102°
2026-04-24 20:41 6.89965 -62.04523 38851 ft 446 kts 102°
2026-04-24 20:41 6.88811 -61.98396 38852 ft 445 kts 102°
2026-04-24 20:42 6.87656 -61.92272 38860 ft 445 kts 102°
2026-04-24 20:42 6.86501 -61.86156 38856 ft 445 kts 102°
2026-04-24 20:43 6.85347 -61.80041 38848 ft 444 kts 102°
2026-04-24 20:43 6.84201 -61.73979 38852 ft 444 kts 102°
2026-04-24 20:44 6.83049 -61.67887 38853 ft 443 kts 102°
2026-04-24 20:44 6.81897 -61.61798 38857 ft 443 kts 102°
2026-04-24 20:45 6.80745 -61.55716 38852 ft 442 kts 102°
2026-04-24 20:45 6.79593 -61.49639 38854 ft 442 kts 102°
2026-04-24 20:46 6.78440 -61.43558 38859 ft 442 kts 102°
2026-04-24 20:46 6.77286 -61.37479 38858 ft 443 kts 102°
2026-04-24 20:47 6.76131 -61.31396 38869 ft 443 kts 102°
2026-04-24 20:47 6.74973 -61.25305 38865 ft 443 kts 102°
2026-04-24 20:48 6.73815 -61.19216 38870 ft 443 kts 102°
2026-04-24 20:48 6.72656 -61.13123 38868 ft 444 kts 102°
2026-04-24 20:49 6.71495 -61.07026 38875 ft 444 kts 102°
2026-04-24 20:49 6.70556 -61.00892 38882 ft 444 kts 96°
2026-04-24 20:50 6.70127 -60.94686 38886 ft 445 kts 95°
2026-04-24 20:50 6.69742 -60.88480 38883 ft 445 kts 95°
2026-04-24 20:51 6.69315 -60.82276 38886 ft 445 kts 95°
2026-04-24 20:51 6.68862 -60.76075 38890 ft 444 kts 95°
2026-04-24 20:52 6.68403 -60.69874 38881 ft 445 kts 95°
2026-04-24 20:52 6.67943 -60.63666 38890 ft 445 kts 95°
2026-04-24 20:53 6.67487 -60.57502 38890 ft 446 kts 95°
2026-04-24 20:53 6.67027 -60.51282 38888 ft 446 kts 95°
2026-04-24 20:54 6.66565 -60.45058 38889 ft 447 kts 95°
2026-04-24 20:54 6.66101 -60.38820 38891 ft 447 kts 95°
2026-04-24 20:55 6.65637 -60.32582 38887 ft 448 kts 95°
2026-04-24 20:55 6.65172 -60.26338 38890 ft 447 kts 95°
2026-04-24 20:56 6.64702 -60.20097 38887 ft 447 kts 95°
2026-04-24 20:56 6.64219 -60.13867 38898 ft 446 kts 96°
2026-04-24 20:57 6.63735 -60.07659 38881 ft 444 kts 96°
2026-04-24 20:57 6.63253 -60.01480 38884 ft 442 kts 96°
2026-04-24 20:58 6.62774 -59.95322 38887 ft 441 kts 96°
2026-04-24 20:58 6.62295 -59.89181 38888 ft 440 kts 96°
2026-04-24 20:59 6.61816 -59.83056 38889 ft 439 kts 95°
2026-04-24 20:59 6.61337 -59.76936 38893 ft 439 kts 95°
2026-04-24 21:00 6.60857 -59.70816 38902 ft 439 kts 95°
2026-04-24 21:00 6.60376 -59.64686 38899 ft 440 kts 95°
2026-04-24 21:01 6.59894 -59.58550 38908 ft 441 kts 95°
2026-04-24 21:01 6.59410 -59.52400 38900 ft 442 kts 95°
2026-04-24 21:02 6.58927 -59.46235 38899 ft 442 kts 95°
2026-04-24 21:02 6.58447 -59.40067 38904 ft 443 kts 95°
2026-04-24 21:03 6.57967 -59.33896 38904 ft 443 kts 95°
2026-04-24 21:03 6.57484 -59.27717 38910 ft 443 kts 96°
2026-04-24 21:04 6.57004 -59.21582 38908 ft 443 kts 96°
2026-04-24 21:04 6.56520 -59.15411 38905 ft 443 kts 96°
2026-04-24 21:05 6.56036 -59.09242 38912 ft 442 kts 96°
2026-04-24 21:05 6.55551 -59.03076 38916 ft 442 kts 96°
2026-04-24 21:06 6.55069 -58.96914 38902 ft 442 kts 96°
2026-04-24 21:06 6.54582 -58.90766 38908 ft 441 kts 96°
2026-04-24 21:07 6.54096 -58.84619 38910 ft 441 kts 96°
2026-04-24 21:07 6.53612 -58.78476 38912 ft 440 kts 96°
2026-04-24 21:08 6.53132 -58.72336 38910 ft 440 kts 96°
2026-04-24 21:08 6.52667 -58.66194 38906 ft 440 kts 96°
2026-04-24 21:09 6.52203 -58.60055 38909 ft 440 kts 96°
2026-04-24 21:09 6.51736 -58.53919 38907 ft 440 kts 96°
2026-04-24 21:10 6.51268 -58.47781 38912 ft 440 kts 96°
2026-04-24 21:10 6.50800 -58.41654 38915 ft 439 kts 96°
2026-04-24 21:11 6.50332 -58.35544 38910 ft 438 kts 96°
2026-04-24 21:11 6.49865 -58.29450 38910 ft 437 kts 96°
2026-04-24 21:12 6.49144 -58.24454 38896 ft 433 kts 108°
2026-04-24 21:12 6.46892 -58.17772 38923 ft 431 kts 110°
2026-04-24 21:13 6.44925 -58.12092 38895 ft 430 kts 110°
2026-04-24 21:13 6.42984 -58.06409 38907 ft 430 kts 110°
2026-04-24 21:14 6.41058 -58.00722 38912 ft 430 kts 110°
2026-04-24 21:14 6.39142 -57.95053 38910 ft 431 kts 110°
2026-04-24 21:15 6.37212 -57.89342 38923 ft 431 kts 110°
2026-04-24 21:15 6.35285 -57.83646 38909 ft 430 kts 110°
2026-04-24 21:16 6.33361 -57.77962 38906 ft 429 kts 110°
2026-04-24 21:16 6.31443 -57.72299 38912 ft 428 kts 110°
2026-04-24 21:17 6.29527 -57.66640 38914 ft 427 kts 110°
2026-04-24 21:17 6.27923 -57.61908 38916 ft 427 kts 110°
2026-04-24 21:18 6.25699 -57.55347 38918 ft 427 kts 110°
2026-04-24 21:18 6.23785 -57.49704 38912 ft 427 kts 110°
2026-04-24 21:19 6.21872 -57.44063 38920 ft 427 kts 110°
2026-04-24 21:19 6.19956 -57.38420 38919 ft 427 kts 110°
2026-04-24 21:20 6.17080 -57.29948 38924 ft 427 kts 110°
2026-04-24 21:21 6.15160 -57.24297 38920 ft 428 kts 110°
2026-04-24 21:21 6.13238 -57.18641 38916 ft 428 kts 110°
2026-04-24 21:22 6.11312 -57.12976 38918 ft 428 kts 110°
2026-04-24 21:22 6.09386 -57.07309 38918 ft 429 kts 110°
2026-04-24 21:23 6.07456 -57.01635 38922 ft 429 kts 110°
2026-04-24 21:23 6.05529 -56.95959 38927 ft 429 kts 110°
2026-04-24 21:24 6.03609 -56.90274 38925 ft 430 kts 110°
2026-04-24 21:24 6.01689 -56.84590 38922 ft 430 kts 110°
2026-04-24 21:25 5.99765 -56.78899 38763 ft 433 kts 110°
2026-04-24 21:25 5.98790 -56.76018 38185 ft 435 kts 110°
2026-04-24 21:25 5.97818 -56.73144 37454 ft 434 kts 110°
2026-04-24 21:25 5.96848 -56.70279 36791 ft 433 kts 110°
2026-04-24 21:26 5.96205 -56.68379 36319 ft 433 kts 109°
2026-04-24 21:26 5.94907 -56.64545 35264 ft 437 kts 109°
2026-04-24 21:26 5.93934 -56.61670 34392 ft 443 kts 109°
2026-04-24 21:26 5.92934 -56.58719 33429 ft 449 kts 108°
2026-04-24 21:27 5.91923 -56.55732 32458 ft 454 kts 108°
2026-04-24 21:27 5.90902 -56.52717 31490 ft 458 kts 108°
2026-04-24 21:27 5.90206 -56.50661 30812 ft 462 kts 108°
2026-04-24 21:27 5.89166 -56.47592 29716 ft 467 kts 108°
2026-04-24 21:28 5.88113 -56.44485 28433 ft 472 kts 109°
2026-04-24 21:28 5.87058 -56.41371 27579 ft 469 kts 109°
2026-04-24 21:28 5.86009 -56.38279 26707 ft 465 kts 109°
2026-04-24 21:28 5.84970 -56.35215 25866 ft 462 kts 109°
2026-04-24 21:29 5.83939 -56.32176 25033 ft 459 kts 109°
2026-04-24 21:29 5.82912 -56.29149 24203 ft 456 kts 109°
2026-04-24 21:29 5.81891 -56.26140 23343 ft 455 kts 109°
2026-04-24 21:29 5.80873 -56.23140 22385 ft 453 kts 109°
2026-04-24 21:30 5.79862 -56.20162 21529 ft 448 kts 109°
2026-04-24 21:30 5.78860 -56.17212 20686 ft 444 kts 109°
2026-04-24 21:30 5.77869 -56.14293 19852 ft 440 kts 109°
2026-04-24 21:30 5.76885 -56.11397 19025 ft 436 kts 109°
2026-04-24 21:31 5.75909 -56.08526 18192 ft 433 kts 109°
2026-04-24 21:31 5.74941 -56.05676 17260 ft 430 kts 109°
2026-04-24 21:31 5.73994 -56.02891 16426 ft 424 kts 108°
2026-04-24 21:31 5.73046 -56.00102 15584 ft 420 kts 108°
2026-04-24 21:32 5.72110 -55.97350 14768 ft 415 kts 108°
2026-04-24 21:32 5.71187 -55.94635 14255 ft 403 kts 108°
2026-04-24 21:32 5.70305 -55.92043 14087 ft 383 kts 108°
2026-04-24 21:32 5.69451 -55.89533 13464 ft 379 kts 108°
2026-04-24 21:33 5.68603 -55.87040 12763 ft 375 kts 108°
2026-04-24 21:33 5.67765 -55.84576 12112 ft 371 kts 108°
2026-04-24 21:33 5.66937 -55.82142 11567 ft 364 kts 108°
2026-04-24 21:33 5.66137 -55.79791 11405 ft 347 kts 108°
2026-04-24 21:34 5.65375 -55.77554 11278 ft 331 kts 108°
2026-04-24 21:34 5.64647 -55.75417 11180 ft 315 kts 108°
2026-04-24 21:34 5.63954 -55.73382 11096 ft 301 kts 108°
2026-04-24 21:34 5.63291 -55.71435 11014 ft 289 kts 108°
2026-04-24 21:35 5.62655 -55.69567 10892 ft 278 kts 108°
2026-04-24 21:35 5.62033 -55.67740 10610 ft 275 kts 108°
2026-04-24 21:35 5.61416 -55.65928 10280 ft 274 kts 108°
2026-04-24 21:35 5.60802 -55.64123 9983 ft 272 kts 108°
2026-04-24 21:36 5.60193 -55.62333 9659 ft 271 kts 108°
2026-04-24 21:36 5.59584 -55.60548 9308 ft 269 kts 108°
2026-04-24 21:36 5.58980 -55.58772 8975 ft 268 kts 108°
2026-04-24 21:36 5.58378 -55.57008 8643 ft 267 kts 108°
2026-04-24 21:37 5.57780 -55.55252 8304 ft 266 kts 108°
2026-04-24 21:37 5.57184 -55.53501 7974 ft 264 kts 108°
2026-04-24 21:37 5.56591 -55.51761 7665 ft 263 kts 108°
2026-04-24 21:37 5.56000 -55.50028 7350 ft 261 kts 108°
2026-04-24 21:38 5.55411 -55.48304 7010 ft 261 kts 108°
2026-04-24 21:38 5.54698 -55.46639 6679 ft 262 kts 124°
2026-04-24 21:38 5.53487 -55.45308 6402 ft 261 kts 133°
2026-04-24 21:38 5.52222 -55.44037 6261 ft 252 kts 133°
2026-04-24 21:39 5.51009 -55.42816 6187 ft 242 kts 133°
2026-04-24 21:39 5.49843 -55.41637 6028 ft 235 kts 132°
2026-04-24 21:39 5.48695 -55.40468 5582 ft 237 kts 132°
2026-04-24 21:39 5.47537 -55.39288 4994 ft 236 kts 133°
2026-04-24 21:40 5.46389 -55.38117 4299 ft 236 kts 133°
2026-04-24 21:40 5.45270 -55.36904 3440 ft 238 kts 122°
2026-04-24 21:40 5.44892 -55.35348 2920 ft 225 kts 84°
2026-04-24 21:40 5.45094 -55.33843 2589 ft 210 kts 84°
2026-04-24 21:41 5.45196 -55.32428 2319 ft 196 kts 88°
2026-04-24 21:41 5.45216 -55.31099 2051 ft 185 kts 90°
2026-04-24 21:41 5.45221 -55.29886 1844 ft 168 kts 89°
2026-04-24 21:41 5.45226 -55.28748 1616 ft 153 kts 89°
2026-04-24 21:42 5.45232 -55.27730 1438 ft 145 kts 89°
2026-04-24 21:42 5.45238 -55.26744 1267 ft 136 kts 90°
2026-04-24 21:42 5.45243 -55.25809 1099 ft 133 kts 89°
2026-04-24 21:42 5.45248 -55.24878 913 ft 133 kts 90°
2026-04-24 21:43 5.45253 -55.23925 791 ft 148 kts 89°
2026-04-24 21:43 5.45247 -55.22951 606 ft 137 kts 86°
2026-04-24 21:43 5.45259 -55.21986 426 ft 139 kts 84°
2026-04-24 21:43 5.45270 -55.21014 244 ft 141 kts 85°
2026-04-24 21:44 5.45276 -55.20049 81 ft 135 kts 83°
2026-04-24 21:44 5.45285 -55.19193 59 ft 98 kts 89°
2026-04-24 21:44 5.45288 -55.18720 51 ft 40 kts 89°
2026-04-24 21:44 5.45316 -55.18606 52 ft 12 kts 93°
2026-04-24 21:45 5.45287 -55.18588 53 ft 3 kts 237°
2026-04-24 21:45 5.45288 -55.18619 55 ft 7 kts 271°
2026-04-24 21:45 5.45289 -55.18686 55 ft 12 kts 271°
2026-04-24 21:45 5.45287 -55.18783 53 ft 14 kts 269°
2026-04-24 21:46 5.45286 -55.18890 54 ft 16 kts 269°
2026-04-24 21:46 5.45285 -55.19001 57 ft 15 kts 269°
2026-04-24 21:46 5.45285 -55.19113 60 ft 17 kts 270°
2026-04-24 21:46 5.45284 -55.19235 58 ft 17 kts 269°
2026-04-24 21:47 5.45282 -55.19353 60 ft 17 kts 269°
2026-04-24 21:47 5.45281 -55.19430 62 ft 17 kts 269°
2026-04-24 21:47 5.45282 -55.19600 60 ft 20 kts 270°
2026-04-24 21:47 5.45309 -55.19723 62 ft 15 kts 332°
2026-04-24 21:48 5.45387 -55.19729 64 ft 9 kts 359°
2026-04-24 21:48 5.45438 -55.19754 57 ft 9 kts 307°
2026-04-24 21:48 5.45448 -55.19813 62 ft 9 kts 269°
2026-04-24 21:48 5.45446 -55.19873 61 ft 8 kts 267°
2026-04-24 21:49 5.45444 -55.19931 59 ft 8 kts 269°
2026-04-24 21:49 5.45455 -55.19966 59 ft 4 kts 332°
2026-04-24 21:49 5.45485 -55.19966 57 ft 4 kts
2026-04-24 21:49 5.45514 -55.19966 55 ft 3 kts 360°
2026-04-24 21:50 5.45522 -55.19965 57 ft 0 kts
2026-04-24 21:50 5.45525 -55.19965 57 ft 0 kts